Weather History for KCDA - September, 2013

Change the Weather History Date:

Thursday, September 19, 2013

  Actual Average (K1V4) Record (K1V4)
Temperature  
Mean Temperature 56 °F 59 °F  
Max Temperature 73 °F 70 °F 87 °F (1955)
Min Temperature 38 °F 48 °F 29 °F (1943)
Degree Days  
Heating Degree Days 10 7  
Month to date heating degree days 83  
Since 1 July heating degree days 133  
Cooling Degree Days 0 1  
Month to date cooling degree days 30  
Year to date cooling degree days 428  
Growing Degree Days 6 (Base 50)    
Moisture  
Dew Point 44 °F    
Average Humidity 71    
Maximum Humidity 93    
Minimum Humidity 32    
Precipitation  
Precipitation 0.00 in 0.12 in 2.37 in (1945)
Month to date precipitation 2.00  
Year to date precipitation 27.76  
Sea Level Pressure  
Sea Level Pressure 30.13 in    
Wind  
Wind Speed 0 mph (SW)    
Max Wind Speed 5 mph    
Max Gust Speed -    
Visibility 7 miles    
Events Fog    
T = Trace of Precipitation, MM = Missing Value Source: NWS Daily Summary

Daily Weather History Graph

Daily Weather History Graph

Search for Another Location

Airport or City:

Trip Planner

Search our weather history database for the weather conditions in past years. The results will help you decide how hot, cold, wet, or windy it might be!

Date:

Astronomy

Sep. 19, 2013 Rise Set
Actual Time 6:31 AM EDT 6:50 PM EDT
Civil Twilight 6:02 AM EDT 7:19 PM EDT
Nautical Twilight 5:28 AM EDT 7:54 PM EDT
Astronomical Twilight 4:53 AM EDT 8:29 PM EDT
Moon 6:44 PM EDT (9/19) 6:39 AM EDT (9/19)
Length of Visible Light 13h 17m
Length of Day
12h 18m
Full, 100% of the Moon is Illuminated
Sep 19
Full
Sep 26
Last Quarter
Oct 4
New
Oct 11
First Quarter
Oct 18
Full

Hourly Weather History & Observations

Time (EDT) Temp. Dew Point Humidity Pressure Visibility Wind Dir Wind Speed Gust Speed Precip Events Conditions
12:15 AM 46.2 °F 43.3 °F 90% 30.16 in 10.0 mi Calm Calm - N/A   Clear
12:35 AM 47.3 °F 44.1 °F 88% 30.16 in 10.0 mi Calm Calm - N/A   Clear
12:55 AM 46.4 °F 43.3 °F 89% 30.18 in 10.0 mi Calm Calm - N/A   Clear
1:15 AM 44.6 °F 41.5 °F 89% 30.18 in 4.0 mi Calm Calm - N/A   Clear
1:35 AM 44.6 °F 41.7 °F 90% 30.18 in 7.0 mi Calm Calm - N/A   Clear
1:55 AM 44.6 °F 41.9 °F 90% 30.17 in 5.0 mi Calm Calm - N/A   Clear
2:15 AM 44.1 °F 41.5 °F 91% 30.18 in 1.2 mi Calm Calm - N/A   Mist
2:35 AM 44.4 °F 41.9 °F 91% 30.18 in 1.8 mi Calm Calm - N/A   Mist
2:55 AM 42.8 °F 40.3 °F 91% 30.18 in 0.8 mi Calm Calm - N/A   Mist
3:15 AM 42.4 °F 40.1 °F 91% 30.17 in 2.5 mi Calm Calm - N/A   Clear
3:35 AM 42.1 °F 39.7 °F 91% 30.17 in 1.0 mi Calm Calm - N/A   Mist
3:55 AM 42.4 °F 40.1 °F 91% 30.18 in 0.8 mi Calm Calm - N/A   Mist
4:15 AM 42.1 °F 39.7 °F 91% 30.16 in 0.8 mi Calm Calm - N/A   Mist
4:35 AM 41.9 °F 39.6 °F 91% 30.16 in 0.5 mi Calm Calm - N/A Fog Fog
4:55 AM 41.0 °F 38.7 °F 91% 30.16 in 0.2 mi Calm Calm - N/A Fog Fog
5:15 AM 41.2 °F 38.8 °F 91% 30.16 in 1.0 mi Calm Calm - N/A   Mist
5:35 AM 40.3 °F 38.3 °F 93% 30.16 in 0.2 mi Calm Calm - N/A Fog Fog
5:55 AM 39.6 °F 37.4 °F 92% 30.16 in 0.2 mi Calm Calm - N/A Fog Fog
6:15 AM 39.6 °F 37.4 °F 92% 30.16 in 0.2 mi Calm Calm - N/A Fog Fog
6:35 AM 38.7 °F 36.5 °F 92% 30.17 in 0.2 mi Calm Calm - N/A Fog Fog
6:55 AM 39.2 °F 36.9 °F 91% 30.18 in 0.2 mi Calm Calm - N/A Fog Fog
7:15 AM 39.2 °F 36.9 °F 91% 30.18 in 0.2 mi Calm Calm - N/A Fog Fog
7:35 AM 40.3 °F 38.3 °F 93% 30.18 in 0.2 mi Calm Calm - N/A Fog Fog
7:55 AM 42.1 °F 39.7 °F 91% 30.18 in 0.5 mi Calm Calm - N/A Fog Fog
8:15 AM 41.7 °F 39.6 °F 92% 30.18 in 0.2 mi Calm Calm - N/A Fog Fog
8:35 AM 43.7 °F 41.4 °F 91% 30.18 in 0.2 mi Calm Calm - N/A Fog Fog
8:55 AM 45.7 °F 43.3 °F 92% 30.18 in 2.5 mi Calm Calm - N/A   Mostly Cloudy
9:15 AM 48.9 °F 46.6 °F 92% 30.17 in 7.0 mi Calm Calm - N/A   Scattered Clouds
9:35 AM 49.6 °F 47.3 °F 92% 30.17 in 10.0 mi Calm Calm - N/A   Clear
9:55 AM 51.6 °F 49.3 °F 92% 30.17 in 10.0 mi Calm Calm - N/A   Clear
10:15 AM 53.4 °F 51.1 °F 92% 30.16 in 10.0 mi Calm Calm - N/A   Clear
10:35 AM 55.0 °F 52.3 °F 91% 30.17 in 10.0 mi Calm Calm - N/A   Clear
10:55 AM 59.5 °F 50.9 °F 73% 30.16 in 10.0 mi Calm Calm - N/A   Clear
11:15 AM 61.9 °F 47.8 °F 60% 30.16 in 10.0 mi Calm Calm - N/A   Clear
11:35 AM 63.5 °F 46.6 °F 54% 30.15 in 10.0 mi SE 3.5 mph - N/A   Clear
11:55 AM 64.9 °F 46.4 °F 51% 30.15 in 10.0 mi Calm Calm - N/A   Clear
12:15 PM 67.3 °F 46.6 °F 47% 30.15 in 10.0 mi Calm Calm - N/A   Clear
12:35 PM 67.8 °F 46.6 °F 46% 30.14 in 10.0 mi SSE 3.5 mph - N/A   Clear
12:55 PM 69.4 °F 46.9 °F 45% 30.13 in 10.0 mi WSW 4.6 mph - N/A   Clear
1:15 PM 69.6 °F 46.9 °F 44% 30.13 in 10.0 mi SSW 3.5 mph - N/A   Clear
1:35 PM 70.3 °F 46.0 °F 42% 30.12 in 10.0 mi Calm Calm - N/A   Clear
1:55 PM 70.9 °F 46.9 °F 42% 30.11 in 10.0 mi SSE 4.6 mph - N/A   Clear
2:15 PM 71.6 °F 46.2 °F 40% 30.10 in 10.0 mi South 3.5 mph - N/A   Clear
2:35 PM 71.8 °F 46.2 °F 40% 30.10 in 10.0 mi SSE 3.5 mph - N/A   Clear
2:55 PM 72.5 °F 46.0 °F 39% 30.09 in 10.0 mi Calm Calm - N/A   Clear
3:15 PM 72.7 °F 45.1 °F 37% 30.08 in 10.0 mi SSE 4.6 mph - N/A   Clear
3:35 PM 73.2 °F 46.4 °F 38% 30.08 in 10.0 mi Calm Calm - N/A   Clear
3:55 PM 73.8 °F 43.2 °F 33% 30.08 in 10.0 mi Calm Calm - N/A   Clear
4:15 PM 73.8 °F 42.1 °F 32% 30.07 in 10.0 mi Calm Calm - N/A   Clear
4:35 PM 73.8 °F 44.6 °F 35% 30.07 in 10.0 mi Calm Calm - N/A   Clear
4:55 PM 73.8 °F 43.5 °F 34% 30.07 in 10.0 mi Calm Calm - N/A   Clear
5:15 PM 73.8 °F 44.2 °F 35% 30.07 in 10.0 mi Calm Calm - N/A   Clear
5:35 PM 72.1 °F 44.1 °F 36% 30.07 in 10.0 mi West 4.6 mph - N/A   Clear
5:55 PM 71.1 °F 43.3 °F 37% 30.07 in 10.0 mi West 4.6 mph - N/A   Clear
6:15 PM 69.3 °F 44.8 °F 41% 30.07 in 10.0 mi Calm Calm - N/A   Clear
6:35 PM 67.6 °F 45.5 °F 45% 30.08 in 10.0 mi NW 3.5 mph - N/A   Clear
6:55 PM 65.3 °F 45.0 °F 48% 30.08 in 10.0 mi NW 4.6 mph - N/A   Clear
7:15 PM 66.0 °F 43.3 °F 44% 30.08 in 10.0 mi NW 3.5 mph - N/A   Clear
7:35 PM 65.1 °F 42.8 °F 44% 30.08 in 10.0 mi Calm Calm - N/A   Clear
7:55 PM 59.0 °F 47.5 °F 66% 30.09 in 10.0 mi WSW 3.5 mph - N/A   Clear
8:15 PM 55.8 °F 48.2 °F 76% 30.09 in 10.0 mi Calm Calm - N/A   Clear
8:35 PM 55.9 °F 48.2 °F 75% 30.10 in 10.0 mi Calm Calm - N/A   Clear
8:55 PM 55.8 °F 47.8 °F 75% 30.10 in 10.0 mi Calm Calm - N/A   Clear
9:15 PM 55.2 °F 47.8 °F 76% 30.10 in 10.0 mi Calm Calm - N/A   Clear
9:35 PM 55.0 °F 46.8 °F 74% 30.10 in 10.0 mi Calm Calm - N/A   Clear
9:55 PM 52.7 °F 46.8 °F 80% 30.10 in 10.0 mi Calm Calm - N/A   Clear
10:15 PM 52.9 °F 46.9 °F 80% 30.10 in 10.0 mi Calm Calm - N/A   Clear
10:35 PM 52.7 °F 47.5 °F 82% 30.11 in 10.0 mi Calm Calm - N/A   Clear
10:55 PM 51.4 °F 46.4 °F 83% 30.11 in 10.0 mi Calm Calm - N/A   Clear
11:15 PM 51.6 °F 47.1 °F 85% 30.11 in 10.0 mi Calm Calm - N/A   Clear
11:35 PM 50.4 °F 46.4 °F 86% 30.10 in 10.0 mi Calm Calm - N/A   Clear
11:55 PM 50.0 °F 46.4 °F 87% 30.11 in 10.0 mi Calm Calm - N/A   Clear